Miscellaneous Local Product
Issued by NWS Hastings, NE

Home | Current Version | Previous Version | Text Only | Print | Product List | Glossary Off
Versions: 1 2 3 4 5 6 7 8 9 10 11 12 13 14 15 16 17 18 19 20 21 22 23 24 25 26 27 28 29 30 31 32 33 34 35 36 37 38 39 40 41 42 43 44 45 46 47 48 49 50

000
AXUS43 KGID 270002
MISGRI

GID CWA HOURLY WEATHER ROUNDUP
NATIONAL WEATHER SERVICE HASTINGS NE
700 PM CDT MON JUN 26 2017

NOTE: "FAIR" INDICATES FEW OR NO CLOUDS BELOW 12,000 FEET WITH NO
SIGNIFICANT WEATHER AND/OR OBSTRUCTIONS TO VISIBILITY.

...SOUTH CENTRAL NEBRASKA...

CITY           SKY/WX    TMP DP  RH WIND       PRES   REMARKS
GRAND ISLAND   SUNNY     75  51  43 NE15      30.11F
HASTINGS       SUNNY     77  52  41 NE12      30.11F
KEARNEY        SUNNY     77  50  38 E12       30.11S
ORD            SUNNY     75  41  29 NE9       30.11F
YORK           SUNNY     75  52  43 NE14      30.10S
AURORA         SUNNY     75  49  40 E13       30.11S
LEXINGTON      SUNNY     78  49  36 E15       30.11F
HOLDREGE       MOSUNNY   76  53  45 E13       30.10S
HEBRON         MOSUNNY   72  64  75 E7        30.09S

...NEBRASKA PANHANDLE...

CITY           SKY/WX    TMP DP  RH WIND       PRES   REMARKS
CHADRON        SUNNY     81  37  20 SE12      30.06F
ALLIANCE       SUNNY     80  37  21 E14       30.10F
SCOTTSBLUFF    SUNNY     83  42  23 SE9       30.07F
SIDNEY         SUNNY     82  49  31 E13       30.12F

...WESTERN AND NORTH CENTRAL NEBRASKA...

CITY           SKY/WX    TMP DP  RH WIND       PRES   REMARKS
VALENTINE      CLOUDY    77  35  21 E6        30.12F
AINSWORTH      MOSUNNY   72  41  32 E8        30.14F
ONEILL         SUNNY     73  41  32 E9        30.14S
BROKEN BOW     SUNNY     75  43  31 NE7       30.13F
IMPERIAL       SUNNY     79  54  41 E13       30.10F
NORTH PLATTE   SUNNY     79  44  28 E12       30.11F
MCCOOK         SUNNY     78  57  48 E15       30.10S

...EASTERN NEBRASKA...

CITY           SKY/WX    TMP DP  RH WIND       PRES   REMARKS
NORFOLK        SUNNY     72  43  35 E8        30.12F
SO SIOUX CITY  SUNNY     73  41  31 N8        30.12F
TEKAMAH        SUNNY     74  43  32 NE8       30.11S
COLUMBUS       MOSUNNY   74  48  39 NE8       30.12S
ALBION         SUNNY     75  43  31 E5        30.13S
OMAHA EPPLEY   MOSUNNY   75  50  41 NE7       30.10S
OFFUTT AFB     SUNNY     73  51  44 NE7       30.10S
MILLARD        MOSUNNY   75  52  44 NE3       30.10S
LINCOLN        PTSUNNY   74  55  51 NE9       30.11S
NEBRASKA CITY  SUNNY     71  61  70 S3        30.11S
BEATRICE       MOSUNNY   69  63  81 E7        30.11S
FALLS CITY     MOSUNNY   70  58  65 E6        30.10F

...NORTHERN KANSAS...

CITY           SKY/WX    TMP DP  RH WIND       PRES   REMARKS
GOODLAND       CLOUDY    71  61  70 E23G31    30.11R
HILL CITY      CLOUDY    82  62  50 E6        30.08R
NORTON         PTCLDY    79  54  41 NE10      30.08S
PHILLIPSBURG   SUNNY     82  55  39 N5        30.08R
SMITH CENTER   SUNNY     79  54  41 N13       30.07S
RUSSELL        CLOUDY    83  61  47 N7        30.03S
CONCORDIA      CLOUDY    75  62  64 NE9G18    30.06S
SALINA         CLOUDY    76  61  59 NE20G29   30.02R
TOPEKA         PTSUNNY   68  64  87 NE6       30.09S



USA.gov is the U.S. government's official web portal to all federal, state and local government web resources and services.